Last 24 Hours

Coyote Canyon

10 Minute Data | America/Los_Angeles
as of 9/4/26 5:22 PM PDT
Date & Time Temp (°F) Dew Pt (°F) RH (%) Wind Spd (mph) Wind Dir (°) Wind Gust (mph) Wind Gst Dir (°) Daily Max Temp (°F) Daily Min Temp (°F)
9/4/26 - 1720 75.6 47.4 37 13.6 WNW | 288 22.6 WNW | 284 83.2 56.1
9/4/26 - 1710 75.9 47.3 36 14.8 WNW | 286 22.4 WNW | 299 83.2 56.1
9/4/26 - 1700 76.7 46.6 34 12.5 WNW | 286 20.2 W | 273 83.2 56.1
9/4/26 - 1650 76.2 46.3 35 13.7 WNW | 290 21.9 W | 276 83.2 56.1
9/4/26 - 1640 76.7 46.4 34 14.5 WNW | 285 21.4 W | 275 83.2 56.1
9/4/26 - 1630 77.3 46.0 33 13.6 WNW | 292 22.9 WNW | 291 83.2 56.1
9/4/26 - 1620 76.9 45.7 33 13.6 WNW | 300 21.7 WNW | 290 83.2 56.1
9/4/26 - 1610 77.1 45.2 32 14.4 WNW | 294 23.2 NW | 308 83.2 56.1
9/4/26 - 1600 77.2 44.8 32 14.7 WNW | 297 22.4 WNW | 298 83.2 56.1
9/4/26 - 1550 77.5 44.7 31 13.7 W | 276 22.7 W | 261 83.2 56.1
9/4/26 - 1540 78.1 44.4 30 13.4 WNW | 283 25.1 WNW | 284 83.2 56.1
9/4/26 - 1530 78.4 44.2 30 13.0 W | 278 21.6 W | 277 83.2 56.1
9/4/26 - 1520 77.8 43.8 30 15.5 WNW | 286 24.6 WNW | 294 83.2 56.1
9/4/26 - 1510 78.3 43.6 29 14.4 WNW | 284 26.4 WNW | 287 83.2 56.1
9/4/26 - 1500 79.1 43.4 28 13.0 W | 275 20.0 WNW | 299 83.2 56.1
9/4/26 - 1450 79.1 42.9 28 10.5 W | 267 19.4 WSW | 247 83.2 56.1
9/4/26 - 1440 79.3 40.3 25 15.2 SW | 233 27.3 WSW | 247 83.2 56.1
9/4/26 - 1430 80.6 39.8 23 13.1 SW | 225 23.4 SSW | 203 83.2 56.1
9/4/26 - 1420 81.9 39.5 22 11.3 SW | 228 20.9 SSE | 155 83.2 56.1
9/4/26 - 1410 80.3 37.8 22 14.9 SW | 218 24.9 SW | 225 82.5 56.1
9/4/26 - 1400 79.8 36.9 21 11.9 SW | 221 22.7 SW | 222 82.5 56.1
9/4/26 - 1350 80.8 35.4 20 11.5 S | 172 20.5 SSE | 160 82.5 56.1
9/4/26 - 1340 79.8 34.9 20 18.5 S | 184 27.3 S | 171 82.5 56.1
9/4/26 - 1330 79.6 34.7 20 16.5 SSW | 192 25.8 SW | 227 82.5 56.1
9/4/26 - 1320 78.8 34.0 20 17.6 SSW | 193 25.4 SSW | 196 82.5 56.1
9/4/26 - 1310 79.9 33.4 19 15.5 S | 182 23.4 SW | 215 82.5 56.1
9/4/26 - 1300 79.9 33.8 19 11.0 SSW | 210 22.6 SSW | 210 82.5 56.1
9/4/26 - 1250 80.4 37.2 21 5.6 W | 272 14.3 W | 259 82.5 56.1
9/4/26 - 1240 79.0 35.6 21 6.6 WSW | 243 15.8 SSW | 208 80.3 56.1
9/4/26 - 1230 79.5 34.0 19 7.0 SSW | 206 15.9 SW | 218 80.3 56.1
9/4/26 - 1220 78.4 33.5 20 6.8 WSW | 239 15.7 WSW | 237 79.4 56.1
9/4/26 - 1210 78.0 34.4 21 10.1 W | 275 17.3 WSW | 257 79.2 56.1
9/4/26 - 1200 77.5 34.7 21 10.4 WNW | 285 16.7 W | 268 78.2 56.1
9/4/26 - 1150 76.9 34.2 21 7.9 WNW | 284 16.9 WNW | 287 77.8 56.1
9/4/26 - 1140 76.9 33.5 21 9.4 WNW | 282 16.4 WNW | 294 77.5 56.1
9/4/26 - 1130 76.3 32.9 21 10.9 W | 277 18.9 WNW | 294 77.5 56.1
9/4/26 - 1120 76.8 32.0 19 11.1 W | 268 18.0 NW | 307 77.5 56.1
9/4/26 - 1110 75.8 30.9 19 9.3 WNW | 283 17.4 WNW | 282 76.7 56.1
9/4/26 - 1100 76.2 30.8 19 11.8 W | 280 20.5 W | 265 76.7 56.1
9/4/26 - 1050 74.8 31.9 21 8.5 WNW | 298 17.0 NW | 312 75.6 56.1
9/4/26 - 1040 74.2 32.2 21 9.2 WNW | 289 18.9 WNW | 288 75.5 56.1
9/4/26 - 1030 74.4 32.8 22 9.8 WNW | 300 21.3 WNW | 289 75.5 56.1
9/4/26 - 1020 73.6 33.4 23 8.6 NW | 306 15.0 NW | 304 74.2 56.1
9/4/26 - 1010 73.0 33.8 24 8.8 WNW | 301 13.5 NW | 317 73.5 56.1
9/4/26 - 1000 72.6 33.8 24 7.8 WNW | 290 17.5 WNW | 282 73.0 56.1
9/4/26 - 0950 72.3 33.8 24 8.5 WNW | 286 14.0 WNW | 282 72.7 56.1
9/4/26 - 0940 71.7 32.6 24 9.2 WNW | 286 15.2 WNW | 294 72.2 56.1
9/4/26 - 0930 71.0 31.6 23 10.6 WNW | 292 15.3 WNW | 296 71.6 56.1
9/4/26 - 0920 70.5 31.6 24 10.7 WNW | 292 14.4 WNW | 303 71.1 56.1
9/4/26 - 0910 69.6 27.7 21 11.2 WNW | 296 15.2 WNW | 296 70.1 56.1
9/4/26 - 0900 69.0 21.0 16 10.6 WNW | 298 15.0 WNW | 294 69.4 56.1
9/4/26 - 0850 68.7 17.7 14 11.3 WNW | 293 15.3 WNW | 289 68.9 56.1
9/4/26 - 0840 68.2 17.1 14 10.9 WNW | 296 14.4 WNW | 298 68.8 56.1
9/4/26 - 0830 67.4 15.4 13 12.1 WNW | 298 15.2 WNW | 294 67.6 56.1
9/4/26 - 0820 66.4 18.3 16 12.6 WNW | 298 15.4 WNW | 295 66.9 56.1
9/4/26 - 0810 65.4 20.1 18 11.8 WNW | 302 14.9 WNW | 302 66.0 56.1
9/4/26 - 0800 64.6 19.4 17 12.1 WNW | 303 15.6 NW | 311 64.9 56.1
9/4/26 - 0750 64.8 14.2 14 12.6 NW | 307 15.8 NW | 311 64.9 56.1
9/4/26 - 0740 64.4 12.8 13 13.9 NW | 313 17.0 NW | 316 64.6 56.1
9/4/26 - 0730 63.9 12.3 13 13.8 NW | 316 16.8 NW | 319 64.2 56.1
9/4/26 - 0720 63.3 14.2 15 13.4 NW | 318 16.3 NW | 320 63.5 56.1
9/4/26 - 0710 62.8 16.0 16 13.0 NW | 314 15.2 NW | 311 63.0 56.1
9/4/26 - 0700 62.5 17.8 18 12.4 NW | 311 14.5 NW | 307 63.0 56.1
9/4/26 - 0650 62.5 17.4 17 12.2 NW | 314 14.0 NW | 315 63.0 56.1
9/4/26 - 0640 62.1 19.4 19 10.9 NW | 313 12.9 NW | 319 63.0 56.1
9/4/26 - 0630 62.4 20.8 20 10.5 NW | 315 12.1 NW | 317 63.0 56.1
9/4/26 - 0620 62.4 21.8 21 11.0 NW | 317 13.1 NW | 315 63.0 56.1
9/4/26 - 0610 62.1 24.4 23 11.1 NW | 319 13.2 NW | 316 62.3 56.1
9/4/26 - 0600 61.9 25.9 25 11.2 NW | 318 13.6 NW | 322 62.2 56.1
9/4/26 - 0550 60.0 31.2 34 11.9 NW | 313 14.2 NW | 319 61.6 56.1
9/4/26 - 0540 58.4 37.3 45 12.0 NW | 308 13.8 WNW | 301 60.3 56.1
9/4/26 - 0530 57.4 41.5 56 11.7 NW | 306 14.5 WNW | 302 60.3 56.1
9/4/26 - 0520 57.1 43.8 61 12.7 NW | 305 16.3 NW | 309 60.3 56.1
9/4/26 - 0510 57.4 44.8 62 13.5 NW | 304 17.1 NW | 308 60.3 56.1
9/4/26 - 0500 57.5 45.0 63 14.2 WNW | 303 19.1 WNW | 293 60.3 56.1
9/4/26 - 0450 57.1 44.6 63 13.5 NW | 304 17.8 WNW | 303 60.3 56.1
9/4/26 - 0440 57.0 45.3 65 13.6 NW | 305 17.5 NW | 316 60.3 56.1
9/4/26 - 0430 56.7 45.6 66 13.7 WNW | 303 17.7 NW | 304 60.3 56.1
9/4/26 - 0420 56.5 45.9 68 14.1 WNW | 303 18.4 WNW | 303 60.3 56.1
9/4/26 - 0410 56.4 46.5 69 13.7 WNW | 303 17.7 NW | 304 60.3 56.1
9/4/26 - 0400 56.7 47.0 70 14.4 WNW | 300 18.9 NW | 306 60.3 56.1
9/4/26 - 0350 57.1 46.6 68 15.4 NW | 304 19.6 WNW | 302 60.3 56.1
9/4/26 - 0340 57.8 46.4 66 16.0 NW | 304 21.7 WNW | 294 60.3 56.1
9/4/26 - 0330 58.1 46.3 65 16.4 NW | 306 23.2 WNW | 298 60.3 56.1
9/4/26 - 0320 58.2 46.6 65 15.7 NW | 308 21.0 WNW | 302 60.3 56.1
9/4/26 - 0310 58.1 46.6 65 16.2 NW | 308 20.9 NW | 305 60.3 56.1
9/4/26 - 0300 57.9 46.2 65 16.7 NW | 311 20.5 NW | 307 60.3 56.1
9/4/26 - 0250 58.5 45.3 61 16.6 NW | 314 19.6 NW | 322 60.3 56.1
9/4/26 - 0240 58.8 44.9 60 16.8 NW | 318 20.7 NW | 308 60.3 56.1
9/4/26 - 0230 58.8 44.2 58 16.6 NW | 314 19.4 NW | 319 60.3 56.1
9/4/26 - 0220 58.0 43.9 59 17.4 NW | 309 21.3 NW | 313 60.3 56.1
9/4/26 - 0210 57.2 44.4 62 16.0 WNW | 303 20.0 NW | 314 60.3 56.1
9/4/26 - 0200 56.8 44.6 63 16.5 WNW | 298 20.0 WNW | 296 60.3 56.1
9/4/26 - 0150 56.2 44.6 65 15.3 WNW | 299 18.4 WNW | 301 60.3 56.1
9/4/26 - 0140 56.7 44.8 64 15.2 WNW | 300 19.1 WNW | 294 60.3 56.1
9/4/26 - 0130 57.5 44.7 62 14.5 WNW | 303 18.9 WNW | 303 60.3 57.2
9/4/26 - 0120 59.3 43.6 56 11.6 NW | 308 14.5 WNW | 300 60.3 58.1
9/4/26 - 0110 60.0 43.6 55 11.0 NW | 312 13.8 NW | 311 60.3 59.5
9/4/26 - 0100 59.8 44.4 56 11.4 NW | 319 13.3 NW | 322 78.2 56.3
9/4/26 - 0050 59.1 44.9 59 12.3 NW | 326 16.2 NW | 325 78.2 56.3
9/4/26 - 0040 57.5 46.0 65 10.8 NNW | 332 15.4 NNW | 329 78.2 56.3
9/4/26 - 0030 57.5 46.4 66 10.1 NW | 325 15.8 NW | 312 78.2 56.3
9/4/26 - 0020 58.4 46.8 65 10.8 NW | 310 15.9 WNW | 298 78.2 56.3
9/4/26 - 0010 58.4 47.2 66 14.1 WNW | 302 17.5 WNW | 296 78.2 56.3
9/4/26 - 0000 58.3 47.4 67 15.3 WNW | 296 19.0 WNW | 295 78.2 56.3
9/3/26 - 2350 57.9 47.6 68 14.5 WNW | 297 19.1 WNW | 301 78.2 56.3
9/3/26 - 2340 58.4 47.6 67 14.6 NW | 305 21.7 WNW | 297 78.2 56.3
9/3/26 - 2330 58.7 47.2 65 14.5 NW | 306 19.7 NW | 305 78.2 56.3
9/3/26 - 2320 58.8 46.6 64 13.4 NW | 311 17.9 NW | 315 78.2 56.3
9/3/26 - 2310 59.2 46.9 64 14.7 NW | 307 21.2 WNW | 302 78.2 56.3
9/3/26 - 2300 59.3 47.8 65 19.5 WNW | 300 26.3 WNW | 299 78.2 56.3
9/3/26 - 2250 59.1 48.3 67 22.9 WNW | 298 27.8 WNW | 300 78.2 56.3
9/3/26 - 2240 58.7 48.9 70 21.5 WNW | 299 26.6 WNW | 293 78.2 56.3
9/3/26 - 2230 58.2 48.7 70 19.2 WNW | 299 24.6 WNW | 299 78.2 56.3
9/3/26 - 2220 58.6 48.3 69 17.5 WNW | 299 21.9 WNW | 297 78.2 56.3
9/3/26 - 2210 59.0 47.8 66 15.8 WNW | 300 19.7 WNW | 300 78.2 56.3
9/3/26 - 2200 59.7 47.0 63 12.8 NW | 304 16.9 WNW | 299 78.2 56.3
9/3/26 - 2150 60.4 45.7 58 12.8 NW | 306 18.7 NW | 309 78.2 56.3
9/3/26 - 2140 60.8 44.6 55 12.5 WNW | 298 17.1 WNW | 293 78.2 56.3
9/3/26 - 2130 61.0 45.7 57 12.5 WNW | 294 16.5 WNW | 289 78.2 56.3
9/3/26 - 2120 61.6 46.7 58 14.2 WNW | 297 19.9 WNW | 297 78.2 56.3
9/3/26 - 2110 61.7 46.6 58 15.9 WNW | 298 20.2 WNW | 303 78.2 56.3
9/3/26 - 2100 62.0 45.6 55 15.7 WNW | 295 20.3 WNW | 288 78.2 56.3
9/3/26 - 2050 62.3 45.3 54 15.3 WNW | 298 19.5 WNW | 300 78.2 56.3
9/3/26 - 2040 62.6 44.3 51 14.0 WNW | 299 19.4 WNW | 293 78.2 56.3
9/3/26 - 2030 62.9 44.2 51 16.2 WNW | 295 20.0 W | 273 78.2 56.3
9/3/26 - 2020 63.3 44.6 50 17.5 WNW | 296 22.9 WNW | 293 78.2 56.3
9/3/26 - 2010 63.6 45.1 51 16.6 WNW | 299 21.0 WNW | 298 78.2 56.3
9/3/26 - 2000 63.8 45.9 52 15.4 WNW | 299 21.2 WNW | 285 78.2 56.3
9/3/26 - 1950 64.2 47.2 54 13.7 WNW | 300 18.5 WNW | 298 78.2 56.3
9/3/26 - 1940 64.7 47.8 54 12.5 WNW | 292 19.0 WNW | 282 78.2 56.3
9/3/26 - 1930 65.6 47.2 51 12.8 WNW | 286 18.3 WNW | 286 78.2 56.3
9/3/26 - 1920 66.4 46.6 49 15.8 W | 275 21.8 WNW | 282 78.2 56.3
9/3/26 - 1910 66.8 47.5 50 17.8 W | 277 23.8 W | 269 78.2 56.3
9/3/26 - 1900 67.8 49.0 51 17.1 W | 277 22.7 W | 273 78.2 56.3
9/3/26 - 1850 68.9 47.8 47 16.6 W | 274 21.8 W | 276 78.2 56.3
9/3/26 - 1840 69.5 47.4 45 16.0 W | 279 20.8 W | 270 78.2 56.3
9/3/26 - 1830 70.2 46.5 43 18.3 WNW | 290 23.3 WNW | 293 78.2 56.3
9/3/26 - 1820 70.9 46.4 41 17.8 WNW | 296 23.6 WNW | 298 78.2 56.3
9/3/26 - 1810 71.6 46.5 41 16.1 WNW | 295 22.3 WNW | 297 78.2 56.3
9/3/26 - 1800 71.8 46.5 40 15.1 WNW | 291 22.2 WNW | 295 78.2 56.3
9/3/26 - 1750 72.2 46.6 40 15.5 WNW | 295 23.2 WNW | 298 78.2 56.3
9/3/26 - 1740 72.5 46.5 40 17.5 WNW | 290 23.0 WNW | 291 78.2 56.3
9/3/26 - 1730 72.9 46.9 39 17.6 WNW | 296 23.7 WNW | 291 78.2 56.3
9/3/26 - 1720 73.3 47.0 39 17.7 WNW | 291 25.0 WNW | 298 78.2 56.3
Max 81.9 49.0 70 22.9 - 27.8 - 83.2 59.5
Avg 67.0 39.4 41 13.5 - 19.2 - - -
Min 56.2 12.3 13 5.6 - 12.1 - 60.3 56.1